Time,TemperatureF,DewpointF,PressureIn,WindDirection,WindDirectionDegrees,WindSpeedMPH,WindSpeedGustMPH,Humidity,HourlyPrecipIn,Conditions,Clouds,dailyrainin,SolarRadiationWatts/m^2,SoftwareType,DateUTC
2013-03-18 00:00:00,40.4,36.8,30.31,West,273,0.0,0.0,87,0.00,,---,0.00,0.00,VWS V14.01,2013-03-18 07:00:00,
2013-03-18 00:05:00,40.3,36.8,30.30,West,274,0.0,0.0,87,0.00,,---,0.00,0.00,VWS V14.01,2013-03-18 07:05:00,
2013-03-18 00:10:00,40.2,36.7,30.30,West,273,0.0,0.0,87,0.00,,---,0.00,0.00,VWS V14.01,2013-03-18 07:10:00,
2013-03-18 00:15:00,40.1,36.8,30.30,West,273,0.0,0.0,88,0.00,,---,0.00,0.00,VWS V14.01,2013-03-18 07:15:00,
2013-03-18 00:20:00,40.0,36.7,30.30,West,273,0.0,0.0,88,0.00,,---,0.00,0.00,VWS V14.01,2013-03-18 07:20:00,
2013-03-18 00:25:00,40.0,36.7,30.30,West,273,0.0,0.0,88,0.00,,---,0.00,0.00,VWS V14.01,2013-03-18 07:25:00,
2013-03-18 00:30:00,40.0,36.7,30.30,West,273,0.0,0.0,88,0.00,,---,0.00,0.00,VWS V14.01,2013-03-18 07:30:00,
2013-03-18 00:35:00,39.9,36.6,30.30,West,273,0.0,0.0,88,0.00,,---,0.00,0.00,VWS V14.01,2013-03-18 07:35:00,
2013-03-18 00:40:00,39.8,36.8,30.30,West,273,0.0,0.0,89,0.00,,---,0.00,0.00,VWS V14.01,2013-03-18 07:40:00,
2013-03-18 00:45:00,39.6,36.3,30.30,West,273,0.0,0.0,88,0.00,,---,0.00,0.00,VWS V14.01,2013-03-18 07:45:00,
2013-03-18 00:50:00,39.4,36.2,30.30,West,273,0.0,0.0,88,0.00,,---,0.00,0.00,VWS V14.01,2013-03-18 07:50:00,
2013-03-18 00:55:00,39.2,36.0,30.30,West,273,0.0,0.0,88,0.00,,---,0.00,0.00,VWS V14.01,2013-03-18 07:55:00,
2013-03-18 01:00:00,38.9,35.9,30.30,West,273,0.0,0.0,89,0.00,,---,0.00,0.00,VWS V14.01,2013-03-18 08:00:00,
2013-03-18 01:05:00,38.6,35.6,30.30,West,273,0.0,0.0,89,0.00,,---,0.00,0.00,VWS V14.01,2013-03-18 08:05:00,
2013-03-18 01:10:00,38.3,35.3,30.30,West,273,0.0,0.0,89,0.00,,---,0.00,0.00,VWS V14.01,2013-03-18 08:10:00,
2013-03-18 01:15:00,37.8,35.1,30.30,West,273,0.0,0.0,90,0.00,,---,0.00,0.00,VWS V14.01,2013-03-18 08:15:00,
2013-03-18 01:20:00,37.4,34.7,30.30,West,273,0.0,1.0,90,0.00,,---,0.00,0.00,VWS V14.01,2013-03-18 08:20:00,
2013-03-18 01:25:00,37.1,34.4,30.30,West,273,0.0,1.0,90,0.00,,---,0.00,0.00,VWS V14.01,2013-03-18 08:25:00,
2013-03-18 01:30:00,36.7,34.0,30.29,West,273,1.0,1.0,90,0.00,,---,0.00,0.00,VWS V14.01,2013-03-18 08:30:00,
2013-03-18 01:35:00,36.3,33.7,30.30,West,273,0.0,1.0,90,0.00,,---,0.00,0.00,VWS V14.01,2013-03-18 08:35:00,
2013-03-18 01:40:00,36.0,33.6,30.29,West,273,0.0,0.0,91,0.00,,---,0.00,0.00,VWS V14.01,2013-03-18 08:40:00,
2013-03-18 01:45:00,35.7,33.3,30.30,West,273,0.0,0.0,91,0.00,,---,0.00,0.00,VWS V14.01,2013-03-18 08:45:00,
2013-03-18 01:50:00,35.4,33.0,30.30,West,273,0.0,0.0,91,0.00,,---,0.00,0.00,VWS V14.01,2013-03-18 08:50:00,
2013-03-18 01:55:00,34.9,32.5,30.30,West,273,0.0,2.0,91,0.00,,---,0.00,0.00,VWS V14.01,2013-03-18 08:55:00,
2013-03-18 02:00:00,34.7,32.6,30.30,West,273,2.0,2.0,92,0.00,,---,0.00,0.00,VWS V14.01,2013-03-18 09:00:00,
2013-03-18 02:05:00,34.7,32.6,30.30,West,273,0.0,2.0,92,0.00,,---,0.00,0.00,VWS V14.01,2013-03-18 09:05:00,
2013-03-18 02:10:00,34.3,32.2,30.30,West,273,0.0,0.0,92,0.00,,---,0.00,0.00,VWS V14.01,2013-03-18 09:10:00,
2013-03-18 02:15:00,34.0,31.9,30.29,West,273,0.0,0.0,92,0.00,,---,0.00,0.00,VWS V14.01,2013-03-18 09:15:00,
2013-03-18 02:20:00,33.9,32.1,30.29,West,273,0.0,0.0,93,0.00,,---,0.00,0.00,VWS V14.01,2013-03-18 09:20:00,
2013-03-18 02:25:00,33.8,32.0,30.29,West,273,0.0,0.0,93,0.00,,---,0.00,0.00,VWS V14.01,2013-03-18 09:25:00,
2013-03-18 02:30:00,33.7,31.9,30.30,West,273,0.0,0.0,93,0.00,,---,0.00,0.00,VWS V14.01,2013-03-18 09:30:00,
2013-03-18 02:35:00,33.6,31.8,30.30,West,273,0.0,2.0,93,0.00,,---,0.00,0.00,VWS V14.01,2013-03-18 09:35:00,
2013-03-18 02:40:00,33.4,31.6,30.30,West,273,0.0,0.0,93,0.00,,---,0.00,0.00,VWS V14.01,2013-03-18 09:40:00,
2013-03-18 02:45:00,33.3,31.8,30.30,West,273,0.0,0.0,94,0.00,,---,0.00,0.00,VWS V14.01,2013-03-18 09:45:00,
2013-03-18 02:50:00,33.3,31.8,30.30,West,273,0.0,0.0,94,0.00,,---,0.00,0.00,VWS V14.01,2013-03-18 09:50:00,
2013-03-18 02:55:00,33.2,31.7,30.30,West,273,0.0,0.0,94,0.00,,---,0.00,0.00,VWS V14.01,2013-03-18 09:55:00,
2013-03-18 03:00:00,33.2,31.7,30.30,West,273,0.0,0.0,94,0.00,,---,0.00,0.00,VWS V14.01,2013-03-18 10:00:00,
2013-03-18 03:05:00,33.0,31.5,30.30,West,273,0.0,0.0,94,0.00,,---,0.00,0.00,VWS V14.01,2013-03-18 10:05:00,
2013-03-18 03:10:00,32.9,31.4,30.30,West,273,0.0,0.0,94,0.00,,---,0.00,0.00,VWS V14.01,2013-03-18 10:10:00,
2013-03-18 03:15:00,32.8,31.3,30.30,West,273,0.0,0.0,94,0.00,,---,0.00,0.00,VWS V14.01,2013-03-18 10:15:00,
2013-03-18 03:20:00,32.8,31.3,30.30,West,273,0.0,0.0,94,0.00,,---,0.00,0.00,VWS V14.01,2013-03-18 10:20:00,
2013-03-18 03:25:00,32.7,31.2,30.30,West,273,0.0,0.0,94,0.00,,---,0.00,0.00,VWS V14.01,2013-03-18 10:25:00,
2013-03-18 03:30:00,32.5,31.0,30.31,West,273,0.0,0.0,94,0.00,,---,0.00,0.00,VWS V14.01,2013-03-18 10:30:00,
2013-03-18 03:35:00,32.4,31.1,30.30,West,273,0.0,1.0,95,0.00,,---,0.00,0.00,VWS V14.01,2013-03-18 10:35:00,
2013-03-18 03:40:00,32.2,30.9,30.31,West,273,0.0,0.0,95,0.00,,---,0.00,0.00,VWS V14.01,2013-03-18 10:40:00,
2013-03-18 03:45:00,32.0,30.5,30.30,West,273,0.0,0.0,94,0.00,,---,0.00,0.00,VWS V14.01,2013-03-18 10:45:00,
2013-03-18 03:50:00,31.8,30.3,30.30,West,273,0.0,0.0,94,0.00,,---,0.00,0.00,VWS V14.01,2013-03-18 10:50:00,
2013-03-18 03:55:00,31.6,30.1,30.30,West,273,0.0,0.0,94,0.00,,---,0.00,0.00,VWS V14.01,2013-03-18 10:55:00,
2013-03-18 03:59:00,31.5,30.0,30.30,West,273,0.0,0.0,94,0.00,,---,0.00,0.00,VWS V14.01,2013-03-18 10:59:00,
2013-03-18 04:00:00,31.5,30.0,30.30,West,273,0.0,0.0,94,0.00,,---,0.00,0.00,VWS V14.01,2013-03-18 11:00:00,
2013-03-18 04:04:00,31.2,29.9,30.30,West,273,0.0,1.0,95,0.00,,---,0.00,0.00,VWS V14.01,2013-03-18 11:04:00,
2013-03-18 04:09:00,31.0,29.7,30.30,West,273,0.0,0.0,95,0.00,,---,0.00,0.00,VWS V14.01,2013-03-18 11:09:00,
2013-03-18 04:10:00,31.1,29.8,30.30,West,273,0.0,1.0,95,0.00,,---,0.00,0.00,VWS V14.01,2013-03-18 11:10:00,
2013-03-18 04:14:00,31.1,29.8,30.30,West,273,0.0,0.0,95,0.00,,---,0.00,0.00,VWS V14.01,2013-03-18 11:14:00,
2013-03-18 04:19:00,31.3,30.0,30.30,West,273,0.0,0.0,95,0.00,,---,0.00,0.00,VWS V14.01,2013-03-18 11:19:00,
2013-03-18 04:20:00,31.2,29.9,30.30,West,273,0.0,0.0,95,0.00,,---,0.00,0.00,VWS V14.01,2013-03-18 11:20:00,
2013-03-18 04:24:00,31.1,29.8,30.30,West,273,0.0,0.0,95,0.00,,---,0.00,0.00,VWS V14.01,2013-03-18 11:24:00,
2013-03-18 04:29:00,30.8,29.5,30.30,West,273,0.0,0.0,95,0.00,,---,0.00,0.00,VWS V14.01,2013-03-18 11:29:00,
2013-03-18 04:30:00,30.9,29.6,30.30,West,273,0.0,0.0,95,0.00,,---,0.00,0.00,VWS V14.01,2013-03-18 11:30:00,
2013-03-18 04:34:00,30.8,29.5,30.30,West,273,0.0,0.0,95,0.00,,---,0.00,0.00,VWS V14.01,2013-03-18 11:34:00,
2013-03-18 04:39:00,30.8,29.5,30.30,West,273,0.0,0.0,95,0.00,,---,0.00,0.00,VWS V14.01,2013-03-18 11:39:00,
2013-03-18 04:40:00,30.8,29.5,30.30,West,273,0.0,0.0,95,0.00,,---,0.00,0.00,VWS V14.01,2013-03-18 11:40:00,
2013-03-18 04:45:00,30.8,29.5,30.30,West,273,0.0,0.0,95,0.00,,---,0.00,0.00,VWS V14.01,2013-03-18 11:45:00,
2013-03-18 04:49:00,31.0,29.7,30.30,West,274,0.0,0.0,95,0.00,,---,0.00,0.00,VWS V14.01,2013-03-18 11:49:00,
2013-03-18 04:50:00,30.9,29.6,30.31,West,273,0.0,0.0,95,0.00,,---,0.00,0.00,VWS V14.01,2013-03-18 11:50:00,
2013-03-18 04:54:00,30.9,29.6,30.31,West,273,0.0,0.0,95,0.00,,---,0.00,0.00,VWS V14.01,2013-03-18 11:54:00,
2013-03-18 04:59:00,31.0,30.0,30.30,West,273,0.0,0.0,96,0.00,,---,0.00,0.00,VWS V14.01,2013-03-18 11:59:00,
2013-03-18 05:00:00,31.0,30.0,30.30,West,273,0.0,0.0,96,0.00,,---,0.00,0.00,VWS V14.01,2013-03-18 12:00:00,
2013-03-18 05:05:00,31.1,30.1,30.30,West,273,0.0,0.0,96,0.00,,---,0.00,0.00,VWS V14.01,2013-03-18 12:05:00,
2013-03-18 05:10:00,30.9,29.9,30.30,West,273,0.0,0.0,96,0.00,,---,0.00,0.00,VWS V14.01,2013-03-18 12:10:00,
2013-03-18 05:15:00,30.8,29.8,30.30,West,273,0.0,0.0,96,0.00,,---,0.00,0.00,VWS V14.01,2013-03-18 12:15:00,
2013-03-18 05:20:00,30.6,29.6,30.30,West,273,0.0,0.0,96,0.00,,---,0.00,0.00,VWS V14.01,2013-03-18 12:20:00,
2013-03-18 05:25:00,30.5,29.5,30.30,West,273,0.0,0.0,96,0.00,,---,0.00,0.00,VWS V14.01,2013-03-18 12:25:00,
2013-03-18 05:30:00,30.3,29.0,30.30,West,273,0.0,0.0,95,0.00,,---,0.00,0.00,VWS V14.01,2013-03-18 12:30:00,
2013-03-18 05:35:00,30.0,28.7,30.30,West,273,0.0,0.0,95,0.00,,---,0.00,0.00,VWS V14.01,2013-03-18 12:35:00,
2013-03-18 05:40:00,29.7,28.5,30.30,West,273,0.0,0.0,95,0.00,,---,0.00,0.00,VWS V14.01,2013-03-18 12:40:00,
2013-03-18 05:45:00,29.4,28.1,30.30,West,273,0.0,0.0,95,0.00,,---,0.00,0.00,VWS V14.01,2013-03-18 12:45:00,
2013-03-18 05:50:00,29.2,28.0,30.30,West,273,0.0,0.0,95,0.00,,---,0.00,0.00,VWS V14.01,2013-03-18 12:50:00,
2013-03-18 05:54:00,29.1,27.9,30.30,West,273,0.0,0.0,95,0.00,,---,0.00,0.00,VWS V14.01,2013-03-18 12:54:00,
2013-03-18 05:59:00,29.0,27.8,30.30,West,273,0.0,0.0,95,0.00,,---,0.00,0.00,VWS V14.01,2013-03-18 12:59:00,
2013-03-18 06:00:00,29.1,27.9,30.30,West,273,0.0,0.0,95,0.00,,---,0.00,0.00,VWS V14.01,2013-03-18 13:00:00,
2013-03-18 06:04:00,29.0,28.0,30.30,West,273,0.0,0.0,96,0.00,,---,0.00,0.00,VWS V14.01,2013-03-18 13:04:00,
2013-03-18 06:09:00,28.9,27.9,30.30,West,273,0.0,1.0,96,0.00,,---,0.00,0.00,VWS V14.01,2013-03-18 13:09:00,
2013-03-18 06:10:00,29.0,28.0,30.30,West,273,0.0,0.0,96,0.00,,---,0.00,0.00,VWS V14.01,2013-03-18 13:10:00,
2013-03-18 06:14:00,28.7,27.5,30.31,West,273,0.0,1.0,95,0.00,,---,0.00,0.00,VWS V14.01,2013-03-18 13:14:00,
2013-03-18 06:19:00,28.7,27.7,30.31,West,273,0.0,0.0,96,0.00,,---,0.00,0.00,VWS V14.01,2013-03-18 13:19:00,
2013-03-18 06:20:00,28.7,27.7,30.31,West,273,0.0,1.0,96,0.00,,---,0.00,0.00,VWS V14.01,2013-03-18 13:20:00,
2013-03-18 06:24:00,28.8,27.8,30.31,West,273,0.0,0.0,96,0.00,,---,0.00,0.00,VWS V14.01,2013-03-18 13:24:00,
2013-03-18 06:29:00,29.0,28.0,30.31,West,273,0.0,0.0,96,0.00,,---,0.00,0.00,VWS V14.01,2013-03-18 13:29:00,
2013-03-18 06:30:00,28.9,27.9,30.31,West,273,0.0,0.0,96,0.00,,---,0.00,0.00,VWS V14.01,2013-03-18 13:30:00,
2013-03-18 06:34:00,29.2,28.2,30.31,West,273,0.0,0.0,96,0.00,,---,0.00,0.00,VWS V14.01,2013-03-18 13:34:00,
2013-03-18 06:39:00,29.2,28.2,30.31,West,273,0.0,0.0,96,0.00,,---,0.00,0.00,VWS V14.01,2013-03-18 13:39:00,
2013-03-18 06:40:00,29.2,28.2,30.31,West,273,0.0,0.0,96,0.00,,---,0.00,0.00,VWS V14.01,2013-03-18 13:40:00,
2013-03-18 06:44:00,29.3,28.3,30.31,West,273,0.0,0.0,96,0.00,,---,0.00,0.00,VWS V14.01,2013-03-18 13:44:00,
2013-03-18 06:49:00,29.4,28.4,30.31,West,273,0.0,0.0,96,0.00,,---,0.00,0.00,VWS V14.01,2013-03-18 13:49:00,
2013-03-18 06:50:00,29.3,28.3,30.31,West,273,0.0,0.0,96,0.00,,---,0.00,0.00,VWS V14.01,2013-03-18 13:50:00,
2013-03-18 06:54:00,29.3,28.3,30.31,West,273,0.0,0.0,96,0.00,,---,0.00,0.00,VWS V14.01,2013-03-18 13:54:00,
2013-03-18 06:59:00,29.1,28.1,30.31,West,273,0.0,1.0,96,0.00,,---,0.00,0.00,VWS V14.01,2013-03-18 13:59:00,
2013-03-18 07:00:00,29.2,28.2,30.31,West,273,0.0,0.0,96,0.00,,---,0.00,0.00,VWS V14.01,2013-03-18 14:00:00,
2013-03-18 07:04:00,28.9,27.9,30.31,West,273,0.0,1.0,96,0.00,,---,0.00,0.00,VWS V14.01,2013-03-18 14:04:00,
2013-03-18 07:09:00,28.7,27.7,30.31,West,273,0.0,0.0,96,0.00,,---,0.00,0.00,VWS V14.01,2013-03-18 14:09:00,
2013-03-18 07:10:00,28.8,27.8,30.31,West,273,0.0,1.0,96,0.00,,---,0.00,0.00,VWS V14.01,2013-03-18 14:10:00,
2013-03-18 07:14:00,28.6,27.6,30.31,West,273,0.0,0.0,96,0.00,,---,0.00,0.00,VWS V14.01,2013-03-18 14:14:00,
2013-03-18 07:19:00,28.4,27.4,30.31,West,273,0.0,1.0,96,0.00,,---,0.00,5.00,VWS V14.01,2013-03-18 14:19:00,
2013-03-18 07:20:00,28.4,27.4,30.31,West,273,0.0,0.0,96,0.00,,---,0.00,0.00,VWS V14.01,2013-03-18 14:20:00,
2013-03-18 07:24:00,28.3,27.3,30.31,West,273,0.0,1.0,96,0.00,,---,0.00,9.00,VWS V14.01,2013-03-18 14:24:00,
2013-03-18 07:29:00,28.2,27.2,30.31,West,273,0.0,0.0,96,0.00,,---,0.00,14.00,VWS V14.01,2013-03-18 14:29:00,
2013-03-18 07:30:00,28.2,27.2,30.31,West,273,0.0,1.0,96,0.00,,---,0.00,11.00,VWS V14.01,2013-03-18 14:30:00,
2013-03-18 07:34:00,28.1,27.1,30.31,West,273,0.0,0.0,96,0.00,,---,0.00,18.00,VWS V14.01,2013-03-18 14:34:00,
2013-03-18 07:39:00,28.2,27.2,30.31,West,273,0.0,0.0,96,0.00,,---,0.00,23.00,VWS V14.01,2013-03-18 14:39:00,
2013-03-18 07:40:00,28.1,27.1,30.31,West,273,0.0,0.0,96,0.00,,---,0.00,21.00,VWS V14.01,2013-03-18 14:40:00,
2013-03-18 07:44:00,28.3,27.3,30.31,West,273,0.0,0.0,96,0.00,,---,0.00,28.00,VWS V14.01,2013-03-18 14:44:00,
2013-03-18 07:49:00,28.5,27.5,30.31,West,273,0.0,0.0,96,0.00,,---,0.00,40.00,VWS V14.01,2013-03-18 14:49:00,
2013-03-18 07:50:00,28.4,27.4,30.31,West,273,0.0,0.0,96,0.00,,---,0.00,33.00,VWS V14.01,2013-03-18 14:50:00,
2013-03-18 07:54:00,28.6,27.6,30.31,West,273,0.0,0.0,96,0.00,,---,0.00,63.00,VWS V14.01,2013-03-18 14:54:00,
2013-03-18 07:59:00,28.7,28.0,30.31,West,273,0.0,0.0,97,0.00,,---,0.00,83.00,VWS V14.01,2013-03-18 14:59:00,
2013-03-18 08:00:00,28.7,27.7,30.31,West,273,0.0,0.0,96,0.00,,---,0.00,70.00,VWS V14.01,2013-03-18 15:00:00,
2013-03-18 08:04:00,29.0,28.3,30.31,West,273,0.0,0.0,97,0.00,,---,0.00,93.00,VWS V14.01,2013-03-18 15:04:00,
2013-03-18 08:09:00,29.9,29.1,30.31,West,273,0.0,0.0,97,0.00,,---,0.00,109.00,VWS V14.01,2013-03-18 15:09:00,
2013-03-18 08:10:00,29.4,28.7,30.31,West,273,0.0,0.0,97,0.00,,---,0.00,102.00,VWS V14.01,2013-03-18 15:10:00,
2013-03-18 08:14:00,30.8,30.0,30.31,West,273,0.0,0.0,97,0.00,,---,0.00,123.00,VWS V14.01,2013-03-18 15:14:00,
2013-03-18 08:19:00,31.3,30.5,30.31,West,273,0.0,0.0,97,0.00,,---,0.00,132.00,VWS V14.01,2013-03-18 15:19:00,
2013-03-18 08:20:00,31.1,30.4,30.31,West,273,0.0,0.0,97,0.00,,---,0.00,128.00,VWS V14.01,2013-03-18 15:20:00,
2013-03-18 08:24:00,31.8,31.0,30.31,West,273,0.0,0.0,97,0.00,,---,0.00,146.00,VWS V14.01,2013-03-18 15:24:00,
2013-03-18 08:29:00,32.6,31.8,30.31,West,274,0.0,0.0,97,0.00,,---,0.00,156.00,VWS V14.01,2013-03-18 15:29:00,
2013-03-18 08:30:00,32.2,31.5,30.31,West,273,0.0,0.0,97,0.00,,---,0.00,142.00,VWS V14.01,2013-03-18 15:30:00,
2013-03-18 08:34:00,33.5,32.7,30.31,West,274,0.0,0.0,97,0.00,,---,0.00,176.00,VWS V14.01,2013-03-18 15:34:00,
2013-03-18 08:39:00,34.2,33.4,30.31,West,274,0.0,0.0,97,0.00,,---,0.00,199.00,VWS V14.01,2013-03-18 15:39:00,
2013-03-18 08:40:00,33.9,33.4,30.31,West,274,0.0,0.0,98,0.00,,---,0.00,188.00,VWS V14.01,2013-03-18 15:40:00,
2013-03-18 08:44:00,34.7,33.9,30.31,West,274,0.0,0.0,97,0.00,,---,0.00,197.00,VWS V14.01,2013-03-18 15:44:00,
2013-03-18 08:49:00,35.6,34.8,30.31,West,274,0.0,0.0,97,0.00,,---,0.00,185.00,VWS V14.01,2013-03-18 15:49:00,
2013-03-18 08:50:00,35.2,34.7,30.31,West,274,0.0,0.0,98,0.00,,---,0.00,193.00,VWS V14.01,2013-03-18 15:50:00,
2013-03-18 08:54:00,35.8,35.0,30.32,West,274,0.0,0.0,97,0.00,,---,0.00,144.00,VWS V14.01,2013-03-18 15:54:00,
2013-03-18 08:59:00,35.8,35.0,30.31,West,274,0.0,0.0,97,0.00,,---,0.00,158.00,VWS V14.01,2013-03-18 15:59:00,
2013-03-18 09:00:00,35.9,35.1,30.32,West,274,0.0,0.0,97,0.00,,---,0.00,158.00,VWS V14.01,2013-03-18 16:00:00,
2013-03-18 09:04:00,36.2,35.4,30.31,West,274,0.0,0.0,97,0.00,,---,0.00,230.00,VWS V14.01,2013-03-18 16:04:00,
2013-03-18 09:09:00,36.6,35.8,30.32,West,274,1.0,2.0,97,0.00,,---,0.00,179.00,VWS V14.01,2013-03-18 16:09:00,
2013-03-18 09:10:00,36.4,35.6,30.32,West,274,0.0,0.0,97,0.00,,---,0.00,207.00,VWS V14.01,2013-03-18 16:10:00,
2013-03-18 09:14:00,36.7,35.9,30.32,West,272,0.0,3.0,97,0.00,,---,0.00,223.00,VWS V14.01,2013-03-18 16:14:00,
2013-03-18 09:19:00,37.1,36.1,30.32,West,272,0.0,0.0,96,0.00,,---,0.00,304.00,VWS V14.01,2013-03-18 16:19:00,
2013-03-18 09:20:00,36.9,36.1,30.32,West,272,0.0,3.0,97,0.00,,---,0.00,301.00,VWS V14.01,2013-03-18 16:20:00,
2013-03-18 09:24:00,37.7,36.7,30.32,West,271,0.0,1.0,96,0.00,,---,0.00,320.00,VWS V14.01,2013-03-18 16:24:00,
2013-03-18 09:29:00,38.1,36.8,30.32,WSW,254,2.0,3.0,95,0.00,,---,0.00,338.00,VWS V14.01,2013-03-18 16:29:00,
2013-03-18 09:30:00,37.9,36.9,30.32,West,271,0.0,2.0,96,0.00,,---,0.00,330.00,VWS V14.01,2013-03-18 16:30:00,
2013-03-18 09:34:00,38.4,36.6,30.32,SSE,161,2.0,3.0,93,0.00,,---,0.00,359.00,VWS V14.01,2013-03-18 16:34:00,
2013-03-18 09:39:00,38.7,36.6,30.32,South,178,3.0,4.0,92,0.00,,---,0.00,376.00,VWS V14.01,2013-03-18 16:39:00,
2013-03-18 09:40:00,38.5,36.7,30.32,SSE,150,1.0,4.0,93,0.00,,---,0.00,364.00,VWS V14.01,2013-03-18 16:40:00,
2013-03-18 09:44:00,38.9,36.8,30.32,SSE,163,1.0,4.0,92,0.00,,---,0.00,378.00,VWS V14.01,2013-03-18 16:44:00,
2013-03-18 09:49:00,39.2,36.8,30.33,SSE,162,0.0,3.0,91,0.00,,---,0.00,390.00,VWS V14.01,2013-03-18 16:49:00,
2013-03-18 09:50:00,39.1,36.7,30.32,SSE,158,0.0,4.0,91,0.00,,---,0.00,381.00,VWS V14.01,2013-03-18 16:50:00,
2013-03-18 09:54:00,39.8,37.4,30.33,SSE,167,2.0,3.0,91,0.00,,---,0.00,413.00,VWS V14.01,2013-03-18 16:54:00,
2013-03-18 09:59:00,39.9,37.2,30.33,SSE,161,4.0,5.0,90,0.00,,---,0.00,429.00,VWS V14.01,2013-03-18 16:59:00,
2013-03-18 10:00:00,39.8,37.1,30.33,SSW,194,2.0,5.0,90,0.00,,---,0.00,422.00,VWS V14.01,2013-03-18 17:00:00,
2013-03-18 10:04:00,40.2,37.2,30.33,South,188,3.0,7.0,89,0.00,,---,0.00,452.00,VWS V14.01,2013-03-18 17:04:00,
2013-03-18 10:09:00,40.4,37.4,30.33,SSE,159,3.0,5.0,89,0.00,,---,0.00,490.00,VWS V14.01,2013-03-18 17:09:00,
2013-03-18 10:10:00,40.3,37.3,30.33,SSE,163,3.0,7.0,89,0.00,,---,0.00,473.00,VWS V14.01,2013-03-18 17:10:00,
2013-03-18 10:14:00,40.5,36.9,30.33,SSW,193,2.0,7.0,87,0.00,,---,0.00,497.00,VWS V14.01,2013-03-18 17:14:00,
2013-03-18 10:19:00,40.9,37.6,30.33,South,169,1.0,4.0,88,0.00,,---,0.00,526.00,VWS V14.01,2013-03-18 17:19:00,
2013-03-18 10:20:00,40.6,37.0,30.33,SSW,193,0.0,7.0,87,0.00,,---,0.00,513.00,VWS V14.01,2013-03-18 17:20:00,
2013-03-18 10:24:00,41.2,37.6,30.33,SSE,154,3.0,6.0,87,0.00,,---,0.00,536.00,VWS V14.01,2013-03-18 17:24:00,
2013-03-18 10:29:00,41.6,38.0,30.33,South,179,1.0,5.0,87,0.00,,---,0.00,548.00,VWS V14.01,2013-03-18 17:29:00,
2013-03-18 10:30:00,41.4,37.8,30.33,South,191,5.0,6.0,87,0.00,,---,0.00,543.00,VWS V14.01,2013-03-18 17:30:00,
2013-03-18 10:34:00,42.1,38.2,30.32,South,186,4.0,6.0,86,0.00,,---,0.00,559.00,VWS V14.01,2013-03-18 17:34:00,
2013-03-18 10:39:00,42.3,38.1,30.32,SSE,155,4.0,5.0,85,0.00,,---,0.00,571.00,VWS V14.01,2013-03-18 17:39:00,
2013-03-18 10:40:00,42.2,38.0,30.32,South,180,1.0,6.0,85,0.00,,---,0.00,566.00,VWS V14.01,2013-03-18 17:40:00,
2013-03-18 10:44:00,42.6,37.8,30.32,South,178,0.0,6.0,83,0.00,,---,0.00,585.00,VWS V14.01,2013-03-18 17:44:00,
2013-03-18 10:49:00,43.2,38.7,30.32,South,169,3.0,5.0,84,0.00,,---,0.00,598.00,VWS V14.01,2013-03-18 17:49:00,
2013-03-18 10:50:00,43.0,38.8,30.32,SSE,151,2.0,6.0,85,0.00,,---,0.00,591.00,VWS V14.01,2013-03-18 17:50:00,
2013-03-18 10:54:00,43.6,38.5,30.32,SSE,154,2.0,6.0,82,0.00,,---,0.00,605.00,VWS V14.01,2013-03-18 17:54:00,
2013-03-18 10:59:00,43.9,38.5,30.32,SSE,163,4.0,5.0,81,0.00,,---,0.00,617.00,VWS V14.01,2013-03-18 17:59:00,
2013-03-18 11:00:00,43.7,38.6,30.32,SE,145,5.0,6.0,82,0.00,,---,0.00,610.00,VWS V14.01,2013-03-18 18:00:00,
2013-03-18 11:04:00,44.2,38.8,30.32,South,171,5.0,6.0,81,0.00,,---,0.00,629.00,VWS V14.01,2013-03-18 18:04:00,
2013-03-18 11:09:00,44.2,38.4,30.31,SSE,155,0.0,4.0,80,0.00,,---,0.00,640.00,VWS V14.01,2013-03-18 18:09:00,
2013-03-18 11:10:00,44.2,38.8,30.32,South,187,3.0,7.0,81,0.00,,---,0.00,636.00,VWS V14.01,2013-03-18 18:10:00,
2013-03-18 11:14:00,44.6,38.8,30.32,SE,136,3.0,6.0,80,0.00,,---,0.00,652.00,VWS V14.01,2013-03-18 18:14:00,
2013-03-18 11:19:00,45.0,39.2,30.32,SW,226,2.0,4.0,80,0.00,,---,0.00,663.00,VWS V14.01,2013-03-18 18:19:00,
2013-03-18 11:20:00,44.7,38.9,30.32,SSE,165,2.0,6.0,80,0.00,,---,0.00,656.00,VWS V14.01,2013-03-18 18:20:00,
2013-03-18 11:24:00,45.1,38.7,30.32,SW,235,2.0,7.0,78,0.00,,---,0.00,673.00,VWS V14.01,2013-03-18 18:24:00,
2013-03-18 11:29:00,45.2,38.8,30.32,SW,236,1.0,4.0,78,0.00,,---,0.00,680.00,VWS V14.01,2013-03-18 18:29:00,
2013-03-18 11:30:00,45.1,38.0,30.32,SSW,202,3.0,7.0,76,0.00,,---,0.00,677.00,VWS V14.01,2013-03-18 18:30:00,
2013-03-18 11:34:00,45.6,39.2,30.32,SSW,200,5.0,6.0,78,0.00,,---,0.00,686.00,VWS V14.01,2013-03-18 18:34:00,
2013-03-18 11:39:00,45.6,38.5,30.32,WSW,248,2.0,5.0,76,0.00,,---,0.00,696.00,VWS V14.01,2013-03-18 18:39:00,
2013-03-18 11:40:00,45.4,38.0,30.32,SSW,203,0.0,7.0,75,0.00,,---,0.00,693.00,VWS V14.01,2013-03-18 18:40:00,
2013-03-18 11:44:00,45.9,38.8,30.32,SW,217,0.0,5.0,76,0.00,,---,0.00,705.00,VWS V14.01,2013-03-18 18:44:00,
2013-03-18 11:49:00,46.3,38.8,30.32,SSW,212,5.0,10.0,75,0.00,,---,0.00,721.00,VWS V14.01,2013-03-18 18:49:00,
2013-03-18 11:50:00,46.2,39.4,30.32,West,261,4.0,5.0,77,0.00,,---,0.00,712.00,VWS V14.01,2013-03-18 18:50:00,
2013-03-18 11:54:00,46.3,38.8,30.32,SW,225,6.0,10.0,75,0.00,,---,0.00,728.00,VWS V14.01,2013-03-18 18:54:00,
2013-03-18 11:59:00,46.2,38.7,30.32,SW,232,3.0,4.0,75,0.00,,---,0.00,756.00,VWS V14.01,2013-03-18 18:59:00,
2013-03-18 12:00:00,46.1,37.6,30.32,SW,230,2.0,10.0,72,0.00,,---,0.00,735.00,VWS V14.01,2013-03-18 19:00:00,
2013-03-18 12:04:00,46.4,38.2,30.31,SW,230,2.0,4.0,73,0.00,,---,0.00,752.00,VWS V14.01,2013-03-18 19:04:00,
2013-03-18 12:09:00,46.7,37.1,30.31,ESE,104,4.0,6.0,69,0.00,,---,0.00,752.00,VWS V14.01,2013-03-18 19:09:00,
2013-03-18 12:10:00,46.6,37.0,30.31,SE,139,4.0,6.0,69,0.00,,---,0.00,749.00,VWS V14.01,2013-03-18 19:10:00,
2013-03-18 12:14:00,47.0,38.1,30.31,SE,126,2.0,6.0,71,0.00,,---,0.00,758.00,VWS V14.01,2013-03-18 19:14:00,
2013-03-18 12:19:00,47.4,38.1,30.31,ESE,111,0.0,2.0,70,0.00,,---,0.00,761.00,VWS V14.01,2013-03-18 19:19:00,
2013-03-18 12:20:00,47.2,37.2,30.31,ESE,111,2.0,6.0,68,0.00,,---,0.00,758.00,VWS V14.01,2013-03-18 19:20:00,
2013-03-18 12:24:00,47.7,37.3,30.30,WSW,254,5.0,6.0,67,0.00,,---,0.00,765.00,VWS V14.01,2013-03-18 19:24:00,
2013-03-18 12:29:00,47.6,37.2,30.30,South,184,3.0,8.0,67,0.00,,---,0.00,763.00,VWS V14.01,2013-03-18 19:29:00,
2013-03-18 12:30:00,47.6,36.4,30.30,WSW,240,1.0,9.0,65,0.00,,---,0.00,772.00,VWS V14.01,2013-03-18 19:30:00,
2013-03-18 12:34:00,47.6,38.3,30.30,SW,235,1.0,8.0,70,0.00,,---,0.00,782.00,VWS V14.01,2013-03-18 19:34:00,
2013-03-18 12:39:00,47.9,37.1,30.30,South,187,1.0,5.0,66,0.00,,---,0.00,775.00,VWS V14.01,2013-03-18 19:39:00,
2013-03-18 12:40:00,47.9,37.9,30.30,South,184,5.0,8.0,68,0.00,,---,0.00,777.00,VWS V14.01,2013-03-18 19:40:00,
2013-03-18 12:44:00,48.1,36.9,30.30,SW,216,3.0,7.0,65,0.00,,---,0.00,807.00,VWS V14.01,2013-03-18 19:44:00,
2013-03-18 12:49:00,48.1,37.3,30.29,SSW,192,5.0,6.0,66,0.00,,---,0.00,780.00,VWS V14.01,2013-03-18 19:49:00,
2013-03-18 12:50:00,48.1,38.0,30.29,WSW,248,5.0,10.0,68,0.00,,---,0.00,791.00,VWS V14.01,2013-03-18 19:50:00,
2013-03-18 12:54:00,48.2,36.6,30.29,SE,137,7.0,7.0,64,0.00,,---,0.00,798.00,VWS V14.01,2013-03-18 19:54:00,
2013-03-18 12:59:00,48.9,38.8,30.29,SW,224,1.0,4.0,68,0.00,,---,0.00,798.00,VWS V14.01,2013-03-18 19:59:00,
2013-03-18 13:00:00,48.5,38.1,30.29,SSW,212,3.0,7.0,67,0.00,,---,0.00,802.00,VWS V14.01,2013-03-18 20:00:00,
2013-03-18 13:04:00,48.9,36.5,30.29,SSW,193,3.0,10.0,62,0.00,,---,0.00,791.00,VWS V14.01,2013-03-18 20:04:00,
2013-03-18 13:09:00,48.6,37.0,30.29,West,270,2.0,6.0,64,0.00,,---,0.00,798.00,VWS V14.01,2013-03-18 20:09:00,
2013-03-18 13:10:00,48.7,36.7,30.29,West,272,3.0,10.0,63,0.00,,---,0.00,795.00,VWS V14.01,2013-03-18 20:10:00,
2013-03-18 13:14:00,48.8,37.6,30.29,WSW,240,3.0,7.0,65,0.00,,---,0.00,800.00,VWS V14.01,2013-03-18 20:14:00,
2013-03-18 13:19:00,49.0,37.4,30.29,WSW,242,4.0,11.0,64,0.00,,---,0.00,798.00,VWS V14.01,2013-03-18 20:19:00,
2013-03-18 13:20:00,49.0,36.2,30.28,NW,311,2.0,7.0,61,0.00,,---,0.00,800.00,VWS V14.01,2013-03-18 20:20:00,
2013-03-18 13:24:00,49.3,36.0,30.28,WNW,289,4.0,11.0,60,0.00,,---,0.00,807.00,VWS V14.01,2013-03-18 20:24:00,
2013-03-18 13:29:00,49.7,38.4,30.28,SW,216,3.0,5.0,65,0.00,,---,0.00,800.00,VWS V14.01,2013-03-18 20:29:00,
2013-03-18 13:30:00,49.5,36.6,30.28,WSW,252,3.0,11.0,61,0.00,,---,0.00,798.00,VWS V14.01,2013-03-18 20:30:00,
2013-03-18 13:34:00,50.2,37.7,30.28,SSE,162,2.0,5.0,62,0.00,,---,0.00,773.00,VWS V14.01,2013-03-18 20:34:00,
2013-03-18 13:39:00,49.8,34.3,30.28,East,82,3.0,3.0,55,0.00,,---,0.00,795.00,VWS V14.01,2013-03-18 20:39:00,
2013-03-18 13:40:00,49.9,34.8,30.28,SE,140,3.0,10.0,56,0.00,,---,0.00,816.00,VWS V14.01,2013-03-18 20:40:00,
2013-03-18 13:44:00,49.8,36.9,30.28,ESE,117,2.0,4.0,61,0.00,,---,0.00,802.00,VWS V14.01,2013-03-18 20:44:00,
2013-03-18 13:49:00,50.2,36.4,30.28,WSW,246,2.0,4.0,59,0.00,,---,0.00,624.00,VWS V14.01,2013-03-18 20:49:00,
2013-03-18 13:50:00,49.9,36.2,30.28,SSE,168,0.0,4.0,59,0.00,,---,0.00,624.00,VWS V14.01,2013-03-18 20:50:00,
2013-03-18 13:54:00,50.3,37.4,30.28,SW,218,0.0,4.0,61,0.00,,---,0.00,793.00,VWS V14.01,2013-03-18 20:54:00,
2013-03-18 13:59:00,50.4,35.8,30.28,WSW,245,3.0,9.0,57,0.00,,---,0.00,837.00,VWS V14.01,2013-03-18 20:59:00,
2013-03-18 14:00:00,50.6,37.2,30.28,SSW,198,7.0,8.0,60,0.00,,---,0.00,817.00,VWS V14.01,2013-03-18 21:00:00,
2013-03-18 14:04:00,50.6,35.9,30.28,South,175,1.0,9.0,57,0.00,,---,0.00,821.00,VWS V14.01,2013-03-18 21:04:00,
2013-03-18 14:09:00,50.7,36.5,30.28,West,280,2.0,4.0,58,0.00,,---,0.00,823.00,VWS V14.01,2013-03-18 21:09:00,
2013-03-18 14:10:00,50.8,37.4,30.28,WSW,252,4.0,9.0,60,0.00,,---,0.00,715.00,VWS V14.01,2013-03-18 21:10:00,
2013-03-18 14:14:00,51.1,36.8,30.27,SW,216,2.0,4.0,58,0.00,,---,0.00,714.00,VWS V14.01,2013-03-18 21:14:00,
2013-03-18 14:19:00,51.2,35.1,30.27,SW,216,0.0,1.0,54,0.00,,---,0.00,682.00,VWS V14.01,2013-03-18 21:19:00,
2013-03-18 14:20:00,51.2,36.5,30.27,SW,216,0.0,4.0,57,0.00,,---,0.00,615.00,VWS V14.01,2013-03-18 21:20:00,
2013-03-18 14:24:00,51.2,35.1,30.27,ESE,110,0.0,2.0,54,0.00,,---,0.00,758.00,VWS V14.01,2013-03-18 21:24:00,
2013-03-18 14:29:00,51.5,37.7,30.27,East,85,3.0,4.0,59,0.00,,---,0.00,817.00,VWS V14.01,2013-03-18 21:29:00,
2013-03-18 14:30:00,51.3,37.9,30.27,ENE,63,2.0,3.0,60,0.00,,---,0.00,853.00,VWS V14.01,2013-03-18 21:30:00,
2013-03-18 14:34:00,51.9,38.0,30.26,East,84,5.0,5.0,59,0.00,,---,0.00,765.00,VWS V14.01,2013-03-18 21:34:00,
2013-03-18 14:39:00,51.7,36.5,30.26,North,5,4.0,5.0,56,0.00,,---,0.00,705.00,VWS V14.01,2013-03-18 21:39:00,
2013-03-18 14:40:00,51.9,36.7,30.26,East,84,2.0,5.0,56,0.00,,---,0.00,666.00,VWS V14.01,2013-03-18 21:40:00,
2013-03-18 14:44:00,51.5,36.8,30.26,NNW,344,4.0,9.0,57,0.00,,---,0.00,795.00,VWS V14.01,2013-03-18 21:44:00,
2013-03-18 14:49:00,50.9,35.8,30.26,NW,322,4.0,7.0,56,0.00,,---,0.00,819.00,VWS V14.01,2013-03-18 21:49:00,
2013-03-18 14:50:00,51.2,37.0,30.26,North,351,6.0,10.0,58,0.00,,---,0.00,819.00,VWS V14.01,2013-03-18 21:50:00,
2013-03-18 14:54:00,50.6,37.2,30.25,NNW,334,2.0,7.0,60,0.00,,---,0.00,677.00,VWS V14.01,2013-03-18 21:54:00,
2013-03-18 14:59:00,50.7,37.3,30.25,NNW,346,1.0,6.0,60,0.00,,---,0.00,754.00,VWS V14.01,2013-03-18 21:59:00,
2013-03-18 15:00:00,50.6,35.9,30.25,NNW,331,4.0,7.0,57,0.00,,---,0.00,715.00,VWS V14.01,2013-03-18 22:00:00,
2013-03-18 15:04:00,51.0,37.2,30.25,NNE,17,5.0,9.0,59,0.00,,---,0.00,612.00,VWS V14.01,2013-03-18 22:04:00,
2013-03-18 15:09:00,51.2,37.4,30.25,North,355,1.0,1.0,59,0.00,,---,0.00,756.00,VWS V14.01,2013-03-18 22:09:00,
2013-03-18 15:10:00,51.0,35.9,30.25,North,355,1.0,9.0,56,0.00,,---,0.00,615.00,VWS V14.01,2013-03-18 22:10:00,
2013-03-18 15:14:00,51.7,37.8,30.25,NE,48,3.0,8.0,59,0.00,,---,0.00,589.00,VWS V14.01,2013-03-18 22:14:00,
2013-03-18 15:19:00,52.2,38.3,30.25,NE,36,2.0,4.0,59,0.00,,---,0.00,745.00,VWS V14.01,2013-03-18 22:19:00,
2013-03-18 15:20:00,52.1,38.7,30.25,East,84,4.0,8.0,60,0.00,,---,0.00,740.00,VWS V14.01,2013-03-18 22:20:00,
2013-03-18 15:24:00,52.0,36.3,30.25,NW,325,6.0,10.0,55,0.00,,---,0.00,657.00,VWS V14.01,2013-03-18 22:24:00,
2013-03-18 15:29:00,51.5,36.8,30.25,WNW,302,4.0,7.0,57,0.00,,---,0.00,555.00,VWS V14.01,2013-03-18 22:29:00,
2013-03-18 15:30:00,51.7,37.8,30.25,WNW,284,7.0,10.0,59,0.00,,---,0.00,436.00,VWS V14.01,2013-03-18 22:30:00,
2013-03-18 15:34:00,51.3,35.7,30.25,NW,305,3.0,7.0,55,0.00,,---,0.00,541.00,VWS V14.01,2013-03-18 22:34:00,
2013-03-18 15:39:00,51.1,34.6,30.24,NW,319,5.0,8.0,53,0.00,,---,0.00,526.00,VWS V14.01,2013-03-18 22:39:00,
2013-03-18 15:40:00,51.2,36.1,30.25,NNW,334,6.0,11.0,56,0.00,,---,0.00,547.00,VWS V14.01,2013-03-18 22:40:00,
2013-03-18 15:44:00,51.2,37.0,30.24,WNW,298,5.0,8.0,58,0.00,,---,0.00,503.00,VWS V14.01,2013-03-18 22:44:00,
2013-03-18 15:49:00,51.3,36.2,30.24,WNW,295,3.0,4.0,56,0.00,,---,0.00,503.00,VWS V14.01,2013-03-18 22:49:00,
2013-03-18 15:50:00,51.2,35.6,30.24,WNW,295,2.0,8.0,55,0.00,,---,0.00,526.00,VWS V14.01,2013-03-18 22:50:00,
2013-03-18 15:54:00,51.6,35.5,30.24,NW,319,3.0,8.0,54,0.00,,---,0.00,508.00,VWS V14.01,2013-03-18 22:54:00,
2013-03-18 15:59:00,51.8,36.2,30.24,NNW,336,9.0,10.0,55,0.00,,---,0.00,497.00,VWS V14.01,2013-03-18 22:59:00,
2013-03-18 16:00:00,51.7,37.0,30.24,NNW,328,3.0,8.0,57,0.00,,---,0.00,517.00,VWS V14.01,2013-03-18 23:00:00,
2013-03-18 16:04:00,51.8,36.2,30.24,North,360,7.0,10.0,55,0.00,,---,0.00,476.00,VWS V14.01,2013-03-18 23:04:00,
2013-03-18 16:09:00,51.9,36.3,30.24,NNW,335,6.0,7.0,55,0.00,,---,0.00,466.00,VWS V14.01,2013-03-18 23:09:00,
2013-03-18 16:10:00,51.9,35.8,30.24,NNE,13,4.0,10.0,54,0.00,,---,0.00,482.00,VWS V14.01,2013-03-18 23:10:00,
2013-03-18 16:14:00,51.9,37.2,30.24,North,349,6.0,7.0,57,0.00,,---,0.00,452.00,VWS V14.01,2013-03-18 23:14:00,
2013-03-18 16:19:00,51.7,36.1,30.23,NW,323,9.0,10.0,55,0.00,,---,0.00,411.00,VWS V14.01,2013-03-18 23:19:00,
2013-03-18 16:20:00,51.8,35.7,30.24,NNW,348,5.0,8.0,54,0.00,,---,0.00,418.00,VWS V14.01,2013-03-18 23:20:00,
2013-03-18 16:24:00,51.5,36.8,30.24,NW,325,7.0,10.0,57,0.00,,---,0.00,408.00,VWS V14.01,2013-03-18 23:24:00,
2013-03-18 16:29:00,51.5,37.2,30.23,NNW,337,3.0,6.0,58,0.00,,---,0.00,422.00,VWS V14.01,2013-03-18 23:29:00,
2013-03-18 16:30:00,51.5,37.2,30.24,NNW,342,6.0,10.0,58,0.00,,---,0.00,413.00,VWS V14.01,2013-03-18 23:30:00,
2013-03-18 16:34:00,51.8,36.6,30.23,North,355,4.0,10.0,56,0.00,,---,0.00,413.00,VWS V14.01,2013-03-18 23:34:00,
2013-03-18 16:39:00,52.0,37.2,30.23,NNW,344,6.0,7.0,57,0.00,,---,0.00,422.00,VWS V14.01,2013-03-18 23:39:00,
2013-03-18 16:40:00,51.9,38.0,30.23,North,355,7.0,10.0,59,0.00,,---,0.00,403.00,VWS V14.01,2013-03-18 23:40:00,
2013-03-18 16:44:00,52.1,38.2,30.23,North,355,5.0,11.0,59,0.00,,---,0.00,457.00,VWS V14.01,2013-03-18 23:44:00,
2013-03-18 16:49:00,52.1,37.8,30.23,North,355,6.0,9.0,58,0.00,,---,0.00,438.00,VWS V14.01,2013-03-18 23:49:00,
2013-03-18 16:50:00,52.1,37.3,30.24,NW,304,5.0,11.0,57,0.00,,---,0.00,427.00,VWS V14.01,2013-03-18 23:50:00,
2013-03-18 16:54:00,52.0,36.8,30.23,NNW,328,9.0,10.0,56,0.00,,---,0.00,455.00,VWS V14.01,2013-03-18 23:54:00,
2013-03-18 16:59:00,52.2,37.0,30.23,North,9,6.0,9.0,56,0.00,,---,0.00,429.00,VWS V14.01,2013-03-18 23:59:00,
2013-03-18 17:00:00,52.1,37.8,30.23,North,350,5.0,11.0,58,0.00,,---,0.00,434.00,VWS V14.01,2013-03-19 00:00:00,
2013-03-18 17:04:00,52.5,36.3,30.23,NNE,14,4.0,12.0,54,0.00,,---,0.00,408.00,VWS V14.01,2013-03-19 00:04:00,
2013-03-18 17:09:00,52.3,36.6,30.23,NNW,336,6.0,12.0,55,0.00,,---,0.00,406.00,VWS V14.01,2013-03-19 00:09:00,
2013-03-18 17:10:00,52.5,36.8,30.23,NNW,347,10.0,13.0,55,0.00,,---,0.00,404.00,VWS V14.01,2013-03-19 00:10:00,
2013-03-18 17:14:00,51.9,38.0,30.23,NNW,341,11.0,14.0,59,0.00,,---,0.00,390.00,VWS V14.01,2013-03-19 00:14:00,
2013-03-18 17:19:00,52.2,37.4,30.23,NNE,18,6.0,9.0,57,0.00,,---,0.00,374.00,VWS V14.01,2013-03-19 00:19:00,
2013-03-18 17:20:00,52.0,37.7,30.23,North,355,5.0,14.0,58,0.00,,---,0.00,381.00,VWS V14.01,2013-03-19 00:20:00,
2013-03-18 17:24:00,52.5,37.7,30.23,NNE,12,5.0,10.0,57,0.00,,---,0.00,345.00,VWS V14.01,2013-03-19 00:24:00,
2013-03-18 17:29:00,52.2,37.4,30.23,NW,319,10.0,10.0,57,0.00,,---,0.00,316.00,VWS V14.01,2013-03-19 00:29:00,
2013-03-18 17:30:00,52.3,37.1,30.23,NNE,16,9.0,13.0,56,0.00,,---,0.00,330.00,VWS V14.01,2013-03-19 00:30:00,
2013-03-18 17:34:00,52.2,37.0,30.23,NNE,17,6.0,12.0,56,0.00,,---,0.00,290.00,VWS V14.01,2013-03-19 00:34:00,
2013-03-18 17:39:00,52.2,37.0,30.22,North,9,6.0,9.0,56,0.00,,---,0.00,260.00,VWS V14.01,2013-03-19 00:39:00,
2013-03-18 17:40:00,52.2,37.4,30.22,North,5,7.0,12.0,57,0.00,,---,0.00,267.00,VWS V14.01,2013-03-19 00:40:00,
2013-03-18 17:44:00,51.8,37.1,30.22,NNW,345,7.0,11.0,57,0.00,,---,0.00,241.00,VWS V14.01,2013-03-19 00:44:00,
2013-03-18 17:49:00,51.6,37.8,30.22,North,9,6.0,9.0,59,0.00,,---,0.00,229.00,VWS V14.01,2013-03-19 00:49:00,
2013-03-18 17:50:00,51.6,37.3,30.22,NE,34,6.0,11.0,58,0.00,,---,0.00,229.00,VWS V14.01,2013-03-19 00:50:00,
2013-03-18 17:54:00,51.3,37.0,30.22,North,10,4.0,13.0,58,0.00,,---,0.00,214.00,VWS V14.01,2013-03-19 00:54:00,
2013-03-18 17:59:00,51.2,37.4,30.22,North,9,7.0,10.0,59,0.00,,---,0.00,193.00,VWS V14.01,2013-03-19 00:59:00,
2013-03-18 18:00:00,51.2,37.8,30.22,North,360,5.0,13.0,60,0.00,,---,0.00,204.00,VWS V14.01,2013-03-19 01:00:00,
2013-03-18 18:04:00,51.2,37.8,30.22,North,355,5.0,10.0,60,0.00,,---,0.00,181.00,VWS V14.01,2013-03-19 01:04:00,
2013-03-18 18:09:00,51.1,36.4,30.22,North,5,6.0,11.0,57,0.00,,---,0.00,162.00,VWS V14.01,2013-03-19 01:09:00,
2013-03-18 18:10:00,51.1,37.3,30.22,North,355,7.0,10.0,59,0.00,,---,0.00,167.00,VWS V14.01,2013-03-19 01:10:00,
2013-03-18 18:14:00,50.9,36.7,30.21,North,355,5.0,11.0,58,0.00,,---,0.00,127.00,VWS V14.01,2013-03-19 01:14:00,
2013-03-18 18:19:00,50.6,36.4,30.21,North,355,8.0,10.0,58,0.00,,---,0.00,93.00,VWS V14.01,2013-03-19 01:19:00,
2013-03-18 18:20:00,50.7,36.5,30.21,North,355,7.0,11.0,58,0.00,,---,0.00,102.00,VWS V14.01,2013-03-19 01:20:00,
2013-03-18 18:24:00,50.1,35.9,30.21,North,355,5.0,11.0,58,0.00,,---,0.00,74.00,VWS V14.01,2013-03-19 01:24:00,
2013-03-18 18:29:00,49.7,36.0,30.20,North,360,7.0,7.0,59,0.00,,---,0.00,62.00,VWS V14.01,2013-03-19 01:29:00,
2013-03-18 18:30:00,49.9,36.2,30.20,North,355,4.0,11.0,59,0.00,,---,0.00,63.00,VWS V14.01,2013-03-19 01:30:00,
2013-03-18 18:34:00,49.5,35.3,30.20,North,360,6.0,7.0,58,0.00,,---,0.00,54.00,VWS V14.01,2013-03-19 01:34:00,
2013-03-18 18:39:00,49.1,35.8,30.20,NNE,13,4.0,6.0,60,0.00,,---,0.00,44.00,VWS V14.01,2013-03-19 01:39:00,
2013-03-18 18:40:00,49.3,35.6,30.20,NNW,346,5.0,7.0,59,0.00,,---,0.00,49.00,VWS V14.01,2013-03-19 01:40:00,
2013-03-18 18:44:00,48.8,36.4,30.20,North,5,5.0,7.0,62,0.00,,---,0.00,39.00,VWS V14.01,2013-03-19 01:44:00,
2013-03-18 18:49:00,48.5,36.5,30.19,North,5,2.0,6.0,63,0.00,,---,0.00,32.00,VWS V14.01,2013-03-19 01:49:00,
2013-03-18 18:50:00,48.6,36.2,30.20,North,5,5.0,7.0,62,0.00,,---,0.00,33.00,VWS V14.01,2013-03-19 01:50:00,
2013-03-18 18:54:00,48.2,36.6,30.19,North,5,3.0,6.0,64,0.00,,---,0.00,26.00,VWS V14.01,2013-03-19 01:54:00,
2013-03-18 18:59:00,48.1,36.5,30.19,North,5,5.0,5.0,64,0.00,,---,0.00,21.00,VWS V14.01,2013-03-19 01:59:00,
2013-03-18 19:00:00,48.1,36.5,30.19,North,5,4.0,6.0,64,0.00,,---,0.00,23.00,VWS V14.01,2013-03-19 02:00:00,
2013-03-18 19:04:00,47.8,36.6,30.19,North,5,2.0,5.0,65,0.00,,---,0.00,16.00,VWS V14.01,2013-03-19 02:04:00,
2013-03-18 19:09:00,47.5,36.7,30.19,North,360,2.0,3.0,66,0.00,,---,0.00,11.00,VWS V14.01,2013-03-19 02:09:00,
2013-03-18 19:10:00,47.6,36.4,30.19,North,360,3.0,5.0,65,0.00,,---,0.00,12.00,VWS V14.01,2013-03-19 02:10:00,
2013-03-18 19:14:00,47.1,36.7,30.19,North,360,4.0,4.0,67,0.00,,---,0.00,7.00,VWS V14.01,2013-03-19 02:14:00,
2013-03-18 19:19:00,46.6,36.2,30.19,North,360,4.0,5.0,67,0.00,,---,0.00,0.00,VWS V14.01,2013-03-19 02:19:00,
2013-03-18 19:20:00,46.8,36.4,30.19,North,360,3.0,4.0,67,0.00,,---,0.00,5.00,VWS V14.01,2013-03-19 02:20:00,
2013-03-18 19:24:00,46.3,36.3,30.19,North,360,2.0,5.0,68,0.00,,---,0.00,0.00,VWS V14.01,2013-03-19 02:24:00,
2013-03-18 19:29:00,46.1,36.1,30.19,North,360,4.0,5.0,68,0.00,,---,0.00,0.00,VWS V14.01,2013-03-19 02:29:00,
2013-03-18 19:30:00,46.1,36.1,30.19,North,360,4.0,5.0,68,0.00,,---,0.00,0.00,VWS V14.01,2013-03-19 02:30:00,
2013-03-18 19:34:00,45.8,35.8,30.19,North,360,4.0,6.0,68,0.00,,---,0.00,0.00,VWS V14.01,2013-03-19 02:34:00,
2013-03-18 19:39:00,45.5,35.6,30.19,NNW,348,4.0,5.0,68,0.00,,---,0.00,0.00,VWS V14.01,2013-03-19 02:39:00,
2013-03-18 19:40:00,45.6,35.7,30.19,North,355,3.0,6.0,68,0.00,,---,0.00,0.00,VWS V14.01,2013-03-19 02:40:00,
2013-03-18 19:44:00,45.3,35.7,30.19,North,349,4.0,6.0,69,0.00,,---,0.00,0.00,VWS V14.01,2013-03-19 02:44:00,
2013-03-18 19:49:00,44.9,35.4,30.19,North,349,3.0,4.0,69,0.00,,---,0.00,0.00,VWS V14.01,2013-03-19 02:49:00,
2013-03-18 19:50:00,45.0,35.5,30.19,North,349,3.0,6.0,69,0.00,,---,0.00,0.00,VWS V14.01,2013-03-19 02:50:00,
2013-03-18 19:54:00,44.5,35.3,30.19,NNW,339,4.0,6.0,70,0.00,,---,0.00,0.00,VWS V14.01,2013-03-19 02:54:00,
2013-03-18 19:59:00,44.1,35.0,30.19,NNW,347,5.0,6.0,70,0.00,,---,0.00,0.00,VWS V14.01,2013-03-19 02:59:00,
2013-03-18 20:00:00,44.3,35.2,30.19,NNW,342,5.0,6.0,70,0.00,,---,0.00,0.00,VWS V14.01,2013-03-19 03:00:00,
2013-03-18 20:04:00,43.8,35.0,30.19,North,349,2.0,6.0,71,0.00,,---,0.00,0.00,VWS V14.01,2013-03-19 03:04:00,
2013-03-18 20:09:00,43.7,34.9,30.19,North,349,3.0,5.0,71,0.00,,---,0.00,0.00,VWS V14.01,2013-03-19 03:09:00,
2013-03-18 20:10:00,43.8,34.7,30.19,North,349,4.0,6.0,70,0.00,,---,0.00,0.00,VWS V14.01,2013-03-19 03:10:00,
2013-03-18 20:14:00,43.5,34.7,30.19,North,349,4.0,5.0,71,0.00,,---,0.00,0.00,VWS V14.01,2013-03-19 03:14:00,
2013-03-18 20:19:00,43.2,34.8,30.19,NNW,348,3.0,5.0,72,0.00,,---,0.00,0.00,VWS V14.01,2013-03-19 03:19:00,
2013-03-18 20:20:00,43.3,34.9,30.19,NNW,348,3.0,5.0,72,0.00,,---,0.00,0.00,VWS V14.01,2013-03-19 03:20:00,
2013-03-18 20:24:00,43.1,34.7,30.19,NNW,348,4.0,5.0,72,0.00,,---,0.00,0.00,VWS V14.01,2013-03-19 03:24:00,
2013-03-18 20:29:00,42.8,34.8,30.19,NNW,348,2.0,4.0,73,0.00,,---,0.00,0.00,VWS V14.01,2013-03-19 03:29:00,
2013-03-18 20:30:00,42.9,34.8,30.19,NNW,348,3.0,5.0,73,0.00,,---,0.00,0.00,VWS V14.01,2013-03-19 03:30:00,
2013-03-18 20:34:00,42.7,34.7,30.19,NNW,348,4.0,5.0,73,0.00,,---,0.00,0.00,VWS V14.01,2013-03-19 03:34:00,
2013-03-18 20:39:00,42.5,34.8,30.19,NNW,348,3.0,4.0,74,0.00,,---,0.00,0.00,VWS V14.01,2013-03-19 03:39:00,
2013-03-18 20:40:00,42.5,34.8,30.19,NNW,348,4.0,5.0,74,0.00,,---,0.00,0.00,VWS V14.01,2013-03-19 03:40:00,
2013-03-18 20:44:00,42.5,34.8,30.19,NNW,348,2.0,4.0,74,0.00,,---,0.00,0.00,VWS V14.01,2013-03-19 03:44:00,
2013-03-18 20:49:00,42.5,35.2,30.19,NNW,348,2.0,4.0,75,0.00,,---,0.00,0.00,VWS V14.01,2013-03-19 03:49:00,
2013-03-18 20:50:00,42.5,35.2,30.19,NNW,348,3.0,4.0,75,0.00,,---,0.00,0.00,VWS V14.01,2013-03-19 03:50:00,
2013-03-18 20:54:00,42.5,35.2,30.19,NNW,348,3.0,4.0,75,0.00,,---,0.00,0.00,VWS V14.01,2013-03-19 03:54:00,
2013-03-18 20:59:00,42.5,35.2,30.19,NNW,348,1.0,3.0,75,0.00,,---,0.00,0.00,VWS V14.01,2013-03-19 03:59:00,
2013-03-18 21:00:00,42.5,35.2,30.19,NNW,348,3.0,3.0,75,0.00,,---,0.00,0.00,VWS V14.01,2013-03-19 04:00:00,
2013-03-18 21:05:00,42.3,35.3,30.19,NNW,348,3.0,4.0,76,0.00,,---,0.00,0.00,VWS V14.01,2013-03-19 04:05:00,
2013-03-18 21:10:00,42.2,35.2,30.19,NNW,348,2.0,3.0,76,0.00,,---,0.00,0.00,VWS V14.01,2013-03-19 04:10:00,
2013-03-18 21:15:00,42.1,35.1,30.19,NNW,348,3.0,4.0,76,0.00,,---,0.00,0.00,VWS V14.01,2013-03-19 04:15:00,
2013-03-18 21:20:00,42.1,35.4,30.19,NNW,348,3.0,4.0,77,0.00,,---,0.00,0.00,VWS V14.01,2013-03-19 04:20:00,
2013-03-18 21:25:00,42.0,35.3,30.19,NNW,348,1.0,4.0,77,0.00,,---,0.00,0.00,VWS V14.01,2013-03-19 04:25:00,
2013-03-18 21:30:00,41.5,34.8,30.19,NNW,348,3.0,4.0,77,0.00,,---,0.00,0.00,VWS V14.01,2013-03-19 04:30:00,
2013-03-18 21:35:00,41.0,35.0,30.19,NNW,348,2.0,4.0,79,0.00,,---,0.00,0.00,VWS V14.01,2013-03-19 04:35:00,
2013-03-18 21:40:00,40.7,35.0,30.18,NNW,348,3.0,5.0,80,0.00,,---,0.00,0.00,VWS V14.01,2013-03-19 04:40:00,
2013-03-18 21:45:00,40.5,35.1,30.18,North,349,4.0,6.0,81,0.00,,---,0.00,0.00,VWS V14.01,2013-03-19 04:45:00,
2013-03-18 21:50:00,40.9,35.2,30.18,North,349,5.0,7.0,80,0.00,,---,0.00,0.00,VWS V14.01,2013-03-19 04:50:00,
2013-03-18 21:55:00,41.0,35.3,30.18,NNW,348,4.0,7.0,80,0.00,,---,0.00,0.00,VWS V14.01,2013-03-19 04:55:00,
2013-03-18 22:00:00,41.1,35.4,30.18,NNW,341,5.0,7.0,80,0.00,,---,0.00,0.00,VWS V14.01,2013-03-19 05:00:00,
2013-03-18 22:05:00,40.9,35.2,30.17,NNW,344,5.0,8.0,80,0.00,,---,0.00,0.00,VWS V14.01,2013-03-19 05:05:00,
2013-03-18 22:10:00,40.8,35.1,30.18,North,355,6.0,7.0,80,0.00,,---,0.00,0.00,VWS V14.01,2013-03-19 05:10:00,
2013-03-18 22:15:00,40.8,35.1,30.17,North,355,4.0,7.0,80,0.00,,---,0.00,0.00,VWS V14.01,2013-03-19 05:15:00,
2013-03-18 22:20:00,40.7,35.3,30.17,North,355,4.0,5.0,81,0.00,,---,0.00,0.00,VWS V14.01,2013-03-19 05:20:00,
2013-03-18 22:25:00,40.4,34.7,30.17,North,355,4.0,5.0,80,0.00,,---,0.00,0.00,VWS V14.01,2013-03-19 05:25:00,
2013-03-18 22:30:00,40.1,34.8,30.17,North,5,3.0,6.0,81,0.00,,---,0.00,0.00,VWS V14.01,2013-03-19 05:30:00,
2013-03-18 22:35:00,40.0,35.0,30.17,NNE,12,4.0,6.0,82,0.00,,---,0.00,0.00,VWS V14.01,2013-03-19 05:35:00,
2013-03-18 22:40:00,39.9,34.9,30.17,NNE,12,3.0,5.0,82,0.00,,---,0.00,0.00,VWS V14.01,2013-03-19 05:40:00,
2013-03-18 22:45:00,39.4,34.4,30.16,NNE,12,4.0,6.0,82,0.00,,---,0.00,0.00,VWS V14.01,2013-03-19 05:45:00,
2013-03-18 22:50:00,39.1,34.4,30.16,NNE,12,4.0,4.0,83,0.00,,---,0.00,0.00,VWS V14.01,2013-03-19 05:50:00,
2013-03-18 22:55:00,39.0,34.6,30.16,NNE,12,4.0,5.0,84,0.00,,---,0.00,0.00,VWS V14.01,2013-03-19 05:55:00,
2013-03-18 23:00:00,39.0,34.6,30.16,NNE,12,4.0,4.0,84,0.00,,---,0.00,0.00,VWS V14.01,2013-03-19 06:00:00,
2013-03-18 23:05:00,38.7,34.3,30.16,NNE,12,4.0,5.0,84,0.00,,---,0.00,0.00,VWS V14.01,2013-03-19 06:05:00,
2013-03-18 23:10:00,38.5,34.1,30.16,NNE,12,3.0,4.0,84,0.00,,---,0.00,0.00,VWS V14.01,2013-03-19 06:10:00,
2013-03-18 23:15:00,38.4,34.3,30.16,NNE,12,4.0,5.0,85,0.00,,---,0.00,0.00,VWS V14.01,2013-03-19 06:15:00,
2013-03-18 23:20:00,38.3,34.2,30.16,NNE,12,4.0,5.0,85,0.00,,---,0.00,0.00,VWS V14.01,2013-03-19 06:20:00,
2013-03-18 23:25:00,38.2,34.1,30.15,North,11,4.0,5.0,85,0.00,,---,0.00,0.00,VWS V14.01,2013-03-19 06:25:00,
2013-03-18 23:30:00,38.3,33.9,30.16,North,11,2.0,4.0,84,0.00,,---,0.00,0.00,VWS V14.01,2013-03-19 06:30:00,
2013-03-18 23:35:00,38.4,34.0,30.16,North,11,2.0,4.0,84,0.00,,---,0.00,0.00,VWS V14.01,2013-03-19 06:35:00,
2013-03-18 23:40:00,38.5,34.4,30.16,NNE,13,5.0,5.0,85,0.00,,---,0.00,0.00,VWS V14.01,2013-03-19 06:40:00,
2013-03-18 23:45:00,38.8,34.7,30.15,NNE,15,5.0,7.0,85,0.00,,---,0.00,0.00,VWS V14.01,2013-03-19 06:45:00,
2013-03-18 23:50:00,39.3,34.9,30.15,North,355,6.0,7.0,84,0.00,,---,0.00,0.00,VWS V14.01,2013-03-19 06:50:00,
2013-03-18 23:55:00,39.6,34.6,30.15,North,10,5.0,9.0,82,0.00,,---,0.00,0.00,VWS V14.01,2013-03-19 06:55:00,